Location: Unspecified
(26.1220°N, 0.0000°E)
Time: 00:35:58
(UTC+00:00)

Envisat - Visible Passes

Search period start: 22 May 2019 00:00
Search period end: 01 June 2019 00:00
Orbit: 764 x 766 km, 98.2° (Epoch: 21 May)

Date Brightness Start Highest point End Pass type
(mag) Time Alt. Az. Time Alt. Az. Time Alt. Az.
22 May 4.4 19:10:40 10° SSW 19:15:22 40° W 19:20:08 10° NNW visible
24 May 5.5 19:37:16 10° SW 19:40:59 21° W 19:44:43 10° NW visible
25 May 3.9 18:59:12 10° S 19:04:08 53° W 19:09:05 10° NNW visible
27 May 5.1 19:25:28 10° SSW 19:29:43 27° W 19:33:59 10° NW visible
29 May 5.8 19:52:51 10° SW 19:55:21 14° W 19:57:53 10° WNW visible
30 May 4.6 19:13:50 10° SSW 19:18:27 35° W 19:23:05 10° NNW visible
